Regional Weather Roundup
Issued by NWS

Home | Current Version | Previous Version | Graphics & Text | Print | Product List | Glossary On
Versions: 1 2 3 4 5 6 7 8 9 10 11 12 13 14 15 16 17 18 19 20 21 22 23 24 25 26 27 28 29 30 31 32 33 34 35 36 37 38 39 40 41 42 43 44 45 46 47 48 49 50
000
ASUS43 KMPX 200901
RWRMN
WEATHER ROUNDUP FOR MINNESOTA
NATIONAL WEATHER SERVICE TWIN CITIES/CHANHASSEN MN
400 AM CDT WED AUG 20 2014


NOTE: "FAIR" INDICATES FEW OR NO CLOUDS BELOW 12,000 FEET WITH NO
SIGNIFICANT WEATHER AND/OR OBSTRUCTIONS TO VISIBILITY. N/A MEANS
CURRENT SKY AND/OR WEATHER CONDITIONS ARE NOT AVAILABLE.

MNZ060>063-068>070-201000-
   Twin Cities Metro

CITY           SKY/WX    TMP DP  RH WIND       PRES   REMARKS
TWIN CITIES    PTCLDY    67  65  93 CALM      29.81S
ST PAUL        CLEAR     65  64  97 NE3       29.81S
CRYSTAL        CLEAR     65  63  93 NE3       29.80S
BLAINE         CLEAR     63  61  94 CALM      29.82S
LAKEVILLE        N/A     61  61 100 CALM      29.81S FOG
EDEN PRAIRIE   PTCLDY    65  64  97 CALM      29.80S FOG
SOUTH ST PAUL  CLEAR     65  63  93 CALM      29.81S
LAKE ELMO      FOG       59  59 100 CALM      29.83S VSB 1/4
$$
MNZ001>005-007-008-013>017-022>024-027-028-201000-
   Northwest Minnesota

CITY           SKY/WX    TMP DP  RH WIND       PRES   REMARKS
BEMIDJI        CLEAR     57  57  99 CALM      29.83R FOG
HALLOCK        CLEAR     64  61  88 SE6       29.76S
ROSEAU         CLEAR     63  57  82 SE5       29.81S
WARROAD        CLOUDY    63  59  88 S5        29.82S
THIEF RVR FALL CLEAR     61  59  94 SE6       29.80R
CROOKSTON      CLEAR     63  61  94 SE8       29.78S
FOSSTON        CLEAR     59  55  88 CALM      29.81S
DETROIT LAKES  CLEAR     64  63  94 SE3       29.83R
MOORHEAD       CLEAR     66  66 100 CALM      29.79R
PARK RAPIDS    CLEAR     61  60  97 SE3       29.83R
MAHNOMEN       FAIR      61  60  95 SE5       29.80S
$$
MNZ006-009>011-018-025>026-201000-
   North Central Minnesota

CITY           SKY/WX    TMP DP  RH WIND       PRES   REMARKS
BAUDETTE       CLEAR     60  58  92 SE3       29.83R
FLAG ISLAND    CLEAR     66  63  88 SE9       29.81R
INTL FALLS     FOG       52  52 100 CALM      29.83S VSB 1/2
WASKISH        MOCLDY    57  55  94 CALM      29.83S
BIG FORK       CLOUDY    50  48  93 CALM      29.85R FOG
LONGVILLE      CLEAR     55  54  94 CALM      29.83S FOG
GRAND RAPIDS   CLOUDY    55  52  88 CALM      29.85R VSB 3/4
CRANE LAKE     FOG       50  50 100 CALM      29.85F VSB 1/4
ORR            CLEAR     52  48  87 CALM      29.83R
COOK           FOG       52  52 100 CALM      29.85S VSB 1/2
WALKER         FAIR      58  58  98 CALM      29.83S
$$
MNZ012-019>021-037-201000-
   Northeast Minnesota

CITY           SKY/WX    TMP DP  RH WIND       PRES   REMARKS
DULUTH         FOG       59  57  93 SE5       29.85R VSB 3/4
ELY            CLOUDY    61  59  94 CALM      29.85S
HIBBING        FOG       51  49  92 CALM      29.85R VSB 1/4
EVELETH        FOG       57  55  94 CALM      29.85S VSB 1/2
DULUTH HARBOR  CLOUDY    63  59  88 NE7       29.84R
TWO HARBORS    CLOUDY    57  52  82 CALM      29.83R HAZE
SILVER BAY     CLEAR     57  57 100 CALM      29.82S
GRAND MARAIS     N/A     62  59  90 CALM      29.81S
G MARAIS ARPRT CLOUDY    57  54  88 NW3       29.86R
$$
MNZ029>031-032-039>041-046>048-054>057-064-201000-
   West Central Minnesota

CITY           SKY/WX    TMP DP  RH WIND       PRES   REMARKS
FERGUS FALLS   CLEAR     66  63  88 E3        29.80R
WHEATON        PTCLDY    61  59  94 E5        29.80F
MORRIS         CLEAR     63  63 100 SE5       29.79S FOG
ALEXANDRIA     CLEAR     65  62  90 SE6       29.83R
ELBOW LAKE     FAIR      65  62  90 SE5       29.81R
WADENA         CLEAR     59  57  94 CALM      29.82S FOG
GLENWOOD       CLEAR     61  61 100 SE3       29.83R
APPLETON       PTCLDY    63  61  94 E3        29.79S FOG
BENSON         CLEAR     61  61 100 CALM      29.81R FOG
ORTONVILLE     PTCLDY    64  63  94 E3        29.78F
MADISON          N/A     64  64 100 CALM      29.78F
WILLMAR        FAIR      61  59  94 CALM      29.83R FOG
$$
MNZ033>034-036-042>043-049>051-058-059-201000-
   Central Minnesota

CITY           SKY/WX    TMP DP  RH WIND       PRES   REMARKS
ST CLOUD       CLEAR     64  62  93 E5        29.81S
SAUK CENTRE    FAIR      57  56  97 CALM      29.83R
PAYNESVILLE    CLEAR     58  58 100 CALM      29.82S
AITKIN         HAZE      55  52  88 CALM      29.82F VSB 1/4
PINE RIVER       N/A     57  57 100 CALM      29.87S FOG
BRAINERD       MOCLDY    58  58 100 CALM      29.83S FOG
STAPLES        CLEAR     61  59  94 CALM      29.82S
LONG PRAIRIE   FAIR      55  55 100 CALM      29.83R FOG
LITTLE FALLS   CLEAR     61  59  94 CALM      29.82S
LITCHFIELD     CLEAR     64  64 100 CALM      29.82R FOG
BUFFALO        PTCLDY    62  60  91 CALM      29.82S
MAPLE LAKE     FOG       62  62  99 CALM      29.83R VSB 3/4
$$
MNZ037-044-045-052-053-201000-
   East Central Minnesota

CITY           SKY/WX    TMP DP  RH WIND       PRES   REMARKS
PRINCETON      PTCLDY    63  63 100 NE3       29.83R
MORA           CLEAR     55  54  94 CALM      29.85S FOG
CAMBRIDGE      HAZE      64  55  72 CALM      29.81S VSB 1/4
RUSH CITY      CLEAR     60  58  96 CALM      29.83S FOG
MOOSE LAKE     CLOUDY    57  55  94 CALM      29.83R FOG
HINCKLEY       CLOUDY    55  55 100 CALM      29.84R
CLOQUET        FOG       61  57  88 CALM      29.85R VSB 1/4
MCGREGOR       CLOUDY    55  54  94 CALM      29.85S VSB 1/4
$$
MNZ071>073-080-081-089-090-097-098-201000-
   Southwest Minnesota

CITY           SKY/WX    TMP DP  RH WIND       PRES   REMARKS
MONTEVIDEO     PTCLDY    64  63  94 SE5       29.80F
GRANITE FALLS  PTCLDY    64  63  98 E3        29.81F
CANBY          PTCLDY    64  62  94 CALM      29.81R
MARSHALL       CLEAR     64  61  88 S3        29.79F
REDWOOD FALLS  PTCLDY    64  63  96 CALM      29.80R
OLIVIA         CLEAR     63  59  88 CALM      29.81R
PIPESTONE      MOCLDY    64  63  94 SE5       29.81F
WINDOM         FOG       61  59  94 CALM      29.83R VSB 1/2
WORTHINGTON    CLEAR     61   5  11 NE3       29.83F
JACKSON        CLEAR     61  57  88 CALM      29.84R FOG
TRACY          CLEAR     67  63  86 CALM      29.81F
SLAYTON        CLEAR     58  58  99 CALM      29.83S FOG
$$
MNZ065>067-074>077-082>085-091>093-201000-
   South Central Minnesota

CITY           SKY/WX    TMP DP  RH WIND       PRES   REMARKS
MANKATO        CLEAR     64  61  88 CALM      29.81S
NEW ULM        CLEAR     63  63 100 CALM      29.81R
ST JAMES       CLEAR     64  63  94 CALM      29.83R
FAIRMONT       PTCLDY    63  45  51 CALM      29.82R
GLENCOE        CLEAR     62  59  91 CALM      29.80S
FARIBAULT      MOCLDY    63  57  82 CALM      29.82S HAZE
OWATONNA       CLEAR     61  59  94 CALM      29.82S FOG
WASECA         CLEAR     57  54  88 CALM      29.83S FOG
ALBERT LEA     CLEAR     64  63  94 CALM      29.83S
$$
MNZ078>079-086>088-094>096-201000-
   Southeast Minnesota

CITY           SKY/WX    TMP DP  RH WIND       PRES   REMARKS
ROCHESTER      PTCLDY    63  60  90 CALM      29.85R FOG
RED WING       FOG       63  61  94 CALM      29.81S VSB 3/4
STANTON        PTCLDY    62  60  93 CALM      29.81R FOG
DODGE CENTER   PTCLDY    61  61 100 SW5       29.83S FOG
WINONA         CLEAR     63  61  94 CALM      29.82S FOG
AUSTIN         PTCLDY    61  61 100 CALM      29.83R FOG
PRESTON        PTCLDY    64  64 100 CALM      29.84S
$$
ABBREVIATIONS USED IN REMARKS
   TC - TEMPERATURES IN CELSIUS
  WCI - WIND CHILL INDEX
   HX - HEAT INDEX
  VSB - VISIBILITY
$$



USA.gov is the U.S. government's official web portal to all federal, state and local government web resources and services.